This is the latest recevied weather packets stored in our database for station/object KD0MAC. If no packets are shown the sender has not sent any weather packets the latest 10 day(s).
| Time | Temp. | Humidity | Pressure | Rain* | Wind** | Luminosity | Snow |
|---|---|---|---|---|---|---|---|
| 1788620935 | 28.89° C | 58% | 1014.9 hPa | 0 mm | - | 185 W/m² | - |
| 1788620634 | 28.89° C | 57% | 1014.9 hPa | 0 mm | - | 228 W/m² | - |
| 1788620335 | 28.89° C | 60% | 1014.9 hPa | 0 mm | - | 307 W/m² | - |
| 1788620034 | 28.33° C | 58% | 1014.9 hPa | 0 mm | - | 188 W/m² | - |
| 1788619734 | 27.78° C | 59% | 1014.6 hPa | 0 mm | - | 292 W/m² | - |
| 1788619434 | 27.22° C | 61% | 1014.6 hPa | 0 mm | - | 244 W/m² | - |
| 1788619134 | 27.22° C | 63% | 1014.6 hPa | 0 mm | - | 246 W/m² | - |
| 1788618875 | 26.11° C | 66% | 1014.6 hPa | 0 mm | - | 225 W/m² | - |
| 1788618834 | 26.11° C | 66% | 1014.6 hPa | 0 mm | - | 225 W/m² | - |
| 1788618575 | 25° C | 68% | 1014.6 hPa | 0 mm | - | 178 W/m² | - |
| 1788618538 | 25° C | 68% | 1014.6 hPa | 0 mm | - | 178 W/m² | - |
| 1788618234 | 25° C | 70% | 1014.6 hPa | 0 mm | - | 104 W/m² | - |
| 1788617934 | 25° C | 69% | 1014.6 hPa | 0 mm | - | 91 W/m² | - |
| 1788617635 | 24.44° C | 70% | 1014.6 hPa | 0 mm | - | 138 W/m² | - |
| 1788617334 | 23.89° C | 71% | 1014.6 hPa | 0 mm | - | 110 W/m² | - |
| 1788617035 | 23.89° C | 71% | 1014.6 hPa | 0 mm | - | 68 W/m² | - |
| 1788616734 | 23.33° C | 71% | 1014.6 hPa | 0 mm | - | 90 W/m² | - |
| 1788616435 | 23.33° C | 72% | 1014.6 hPa | 0 mm | - | 78 W/m² | - |
| 1788616135 | 22.78° C | 72% | 1014.6 hPa | 0 mm | - | 63 W/m² | - |
| 1788615876 | 22.22° C | 73% | 1014.2 hPa | 0 mm | - | 61 W/m² | - |
| 1788615834 | 22.22° C | 73% | 1014.2 hPa | 0 mm | - | 61 W/m² | - |
| 1788615534 | 21.67° C | 75% | 1014.2 hPa | 0 mm | - | 75 W/m² | - |
| 1788615234 | 21.11° C | 77% | 1014.2 hPa | 0 mm | - | 46 W/m² | - |
| 1788614975 | 20.56° C | 78% | 1014.2 hPa | 0 mm | - | 37 W/m² | - |
| 1788614675 | 20.56° C | 78% | 1014.2 hPa | 0 mm | - | 32 W/m² | - |
* Rain latest hour (hover to see other rain measurements)
** Current wind speed in m/s (hover to see current wind gust speed)